When you browse on this site, cookies collect data to enhance your experience and personalize the content and advertising you see.
Visit our Privacy Policy to learn more. By continuing to use the site, you agree to this use of cookies and data.
  • In Latvia
  • List of Countries
  • For 7 days
  • Water Temperature
  • Weather Map
  • Weather Widgets
  • user-avatar
    Login

    Hourly Weather Kandahar

    Today, 23 August, Friday

    Time Temperature Precipitation Wind Pressure Humidity
    00:00 +24°C° 0 mm 1 mps 669 mmHg 15%
    01:00 +23°C° 0 mm 1 mps 669 mmHg 16%
    02:00 +23°C° 0 mm 1 mps 669 mmHg 16%
    03:00 +22°C° 0 mm 1 mps 669 mmHg 17%
    04:00 +22°C° 0 mm 1 mps 669 mmHg 18%
    05:00 +24°C° 0 mm 1 mps 670 mmHg 15%
    06:00 +25°C° 0 mm 0 mps 671 mmHg 13%
    07:00 +27°C° 0 mm 0 mps 673 mmHg 11%
    08:00 +29°C° 0 mm 0 mps 673 mmHg 10%
    09:00 +34°C° 0 mm 1 mps 673 mmHg 9%
    10:00 +37°C° 0 mm 2 mps 673 mmHg 7%
    11:00 +38°C° 0 mm 2 mps 673 mmHg 7%
    12:00 +39°C° 0 mm 2 mps 673 mmHg 6%
    13:00 +40°C° 0 mm 3 mps 672 mmHg 5%
    14:00 +40°C° 0 mm 3 mps 672 mmHg 5%
    15:00 +40°C° 0 mm 3 mps 672 mmHg 5%
    16:00 +42°C° 0 mm 4 mps 672 mmHg 4%
    17:00 +38°C° 0 mm 4 mps 671 mmHg 6%
    18:00 +35°C° 0 mm 4 mps 670 mmHg 7%
    19:00 +32°C° 0 mm 4 mps 670 mmHg 8%
    20:00 +30°C° 0 mm 3 mps 670 mmHg 9%
    21:00 +28°C° 0 mm 2 mps 670 mmHg 10%
    22:00 +26°C° 0 mm 1 mps 669 mmHg 12%
    23:00 +25°C° 0 mm 1 mps 669 mmHg 12%

    Tomorrow, 24 August, Saturday

    Time Temperature Precipitation Wind Pressure Humidity
    00:00 +25°C° 0 mm 1 mps 669 mmHg 13%
    01:00 +24°C° 0 mm 1 mps 669 mmHg 13%
    02:00 +23°C° 0 mm 1 mps 669 mmHg 14%
    03:00 +23°C° 0 mm 1 mps 669 mmHg 15%
    04:00 +22°C° 0 mm 1 mps 669 mmHg 15%
    05:00 +25°C° 0 mm 1 mps 670 mmHg 13%
    06:00 +25°C° 0 mm 0 mps 671 mmHg 12%
    07:00 +28°C° 0 mm 0 mps 672 mmHg 10%
    08:00 +32°C° 0 mm 1 mps 672 mmHg 9%
    09:00 +34°C° 0 mm 1 mps 673 mmHg 8%
    10:00 +37°C° 0 mm 2 mps 673 mmHg 7%
    11:00 +38°C° 0 mm 2 mps 673 mmHg 6%
    12:00 +39°C° 0 mm 2 mps 672 mmHg 6%
    13:00 +40°C° 0 mm 2 mps 672 mmHg 5%
    14:00 +40°C° 0 mm 2 mps 672 mmHg 5%
    15:00 +40°C° 0 mm 3 mps 671 mmHg 5%
    16:00 +40°C° 0 mm 3 mps 671 mmHg 5%
    17:00 +37°C° 0 mm 3 mps 670 mmHg 7%
    18:00 +35°C° 0 mm 3 mps 670 mmHg 8%
    19:00 +31°C° 0 mm 3 mps 669 mmHg 10%
    20:00 +29°C° 0 mm 3 mps 669 mmHg 11%
    21:00 +28°C° 0 mm 2 mps 669 mmHg 12%
    22:00 +27°C° 0 mm 2 mps 669 mmHg 13%
    23:00 +26°C° 0 mm 2 mps 669 mmHg 13%

    Day after tomorrow, 25 August, Sunday

    Time Temperature Precipitation Wind Pressure Humidity
    00:00 +25°C° 0 mm 2 mps 669 mmHg 14%
    01:00 +25°C° 0 mm 1 mps 669 mmHg 15%
    02:00 +24°C° 0 mm 1 mps 668 mmHg 16%
    03:00 +23°C° 0 mm 1 mps 668 mmHg 16%
    04:00 +22°C° 0 mm 1 mps 668 mmHg 17%
    05:00 +25°C° 0 mm 1 mps 669 mmHg 15%
    06:00 +27°C° 0 mm 1 mps 670 mmHg 14%
    07:00 +29°C° 0 mm 1 mps 671 mmHg 12%
    08:00 +31°C° 0 mm 1 mps 671 mmHg 10%
    09:00 +33°C° 0 mm 1 mps 672 mmHg 9%
    10:00 +36°C° 0 mm 2 mps 672 mmHg 8%
    11:00 +37°C° 0 mm 2 mps 672 mmHg 7%
    12:00 +39°C° 0 mm 2 mps 672 mmHg 7%
    13:00 +40°C° 0 mm 2 mps 672 mmHg 6%
    14:00 +40°C° 0 mm 1 mps 671 mmHg 6%
    15:00 +40°C° 0 mm 1 mps 671 mmHg 6%
    16:00 +40°C° 0 mm 1 mps 671 mmHg 6%
    17:00 +36°C° 0 mm 1 mps 670 mmHg 7%
    18:00 +34°C° 0 mm 2 mps 670 mmHg 9%
    19:00 +30°C° 0 mm 2 mps 669 mmHg 10%
    20:00 +29°C° 0 mm 2 mps 670 mmHg 11%
    21:00 +28°C° 0 mm 2 mps 670 mmHg 12%
    22:00 +27°C° 0 mm 2 mps 670 mmHg 12%
    23:00 +26°C° 0 mm 1 mps 669 mmHg 13%

    26 August, Monday

    Time Temperature Precipitation Wind Pressure Humidity
    00:00 +25°C° 0 mm 1 mps 669 mmHg 14%
    01:00 +24°C° 0 mm 1 mps 669 mmHg 14%
    02:00 +24°C° 0 mm 1 mps 669 mmHg 15%
    03:00 +23°C° 0 mm 1 mps 669 mmHg 15%
    04:00 +23°C° 0 mm 1 mps 669 mmHg 16%
    05:00 +23°C° 0 mm 0 mps 670 mmHg 14%
    06:00 +26°C° 0 mm 0 mps 671 mmHg 12%
    07:00 +28°C° 0 mm 0 mps 672 mmHg 10%
    08:00 +32°C° 0 mm 1 mps 672 mmHg 9%
    09:00 +34°C° 0 mm 1 mps 673 mmHg 8%
    10:00 +36°C° 0 mm 1 mps 673 mmHg 7%
    11:00 +37°C° 0 mm 1 mps 673 mmHg 7%
    12:00 +40°C° 0 mm 1 mps 673 mmHg 6%
    13:00 +41°C° 0 mm 2 mps 672 mmHg 6%
    14:00 +41°C° 0 mm 2 mps 672 mmHg 6%
    15:00 +41°C° 0 mm 2 mps 672 mmHg 6%
    16:00 +42°C° 0 mm 3 mps 671 mmHg 6%
    17:00 +39°C° 0 mm 3 mps 671 mmHg 7%
    18:00 +36°C° 0 mm 3 mps 670 mmHg 8%
    19:00 +34°C° 0 mm 4 mps 670 mmHg 9%
    20:00 +33°C° 0 mm 3 mps 670 mmHg 10%
    21:00 +31°C° 0 mm 3 mps 670 mmHg 10%
    22:00 +30°C° 0 mm 3 mps 671 mmHg 11%
    23:00 +28°C° 0 mm 2 mps 670 mmHg 12%

    27 August, Tuesday

    Time Temperature Precipitation Wind Pressure Humidity
    00:00 +27°C° 0 mm 2 mps 669 mmHg 13%
    01:00 +26°C° 0 mm 1 mps 669 mmHg 14%
    02:00 +25°C° 0 mm 1 mps 669 mmHg 15%
    03:00 +24°C° 0 mm 1 mps 669 mmHg 15%
    04:00 +23°C° 0 mm 1 mps 669 mmHg 16%
    05:00 +26°C° 0 mm 1 mps 670 mmHg 14%
    06:00 +28°C° 0 mm 1 mps 671 mmHg 12%
    07:00 +29°C° 0 mm 0 mps 672 mmHg 10%
    08:00 +33°C° 0 mm 1 mps 672 mmHg 9%
    09:00 +36°C° 0 mm 2 mps 672 mmHg 8%
    10:00 +38°C° 0 mm 2 mps 673 mmHg 6%
    11:00 +40°C° 0 mm 3 mps 672 mmHg 6%
    12:00 +42°C° 0 mm 5 mps 672 mmHg 6%
    13:00 +44°C° 0 mm 6 mps 672 mmHg 5%
    14:00 +44°C° 0 mm 6 mps 671 mmHg 5%
    15:00 +44°C° 0 mm 6 mps 671 mmHg 6%
    16:00 +44°C° 0 mm 6 mps 670 mmHg 6%
    17:00 +40°C° 0 mm 6 mps 670 mmHg 7%
    18:00 +37°C° 0 mm 5 mps 670 mmHg 7%
    19:00 +34°C° 0 mm 4 mps 670 mmHg 8%
    20:00 +33°C° 0 mm 4 mps 670 mmHg 9%
    21:00 +31°C° 0 mm 3 mps 670 mmHg 9%
    22:00 +29°C° 0 mm 3 mps 670 mmHg 10%
    23:00 +28°C° 0 mm 2 mps 669 mmHg 11%

    28 August, Wednesday

    Time Temperature Precipitation Wind Pressure Humidity
    00:00 +27°C° 0 mm 1 mps 669 mmHg 12%
    01:00 +23°C° 0 mm 0 mps 668 mmHg 13%
    02:00 +25°C° 0 mm 1 mps 668 mmHg 13%
    03:00 +24°C° 0 mm 1 mps 669 mmHg 13%
    04:00 +24°C° 0 mm 1 mps 669 mmHg 13%
    05:00 +26°C° 0 mm 1 mps 670 mmHg 12%
    06:00 +27°C° 0 mm 0 mps 671 mmHg 10%
    07:00 +29°C° 0 mm 0 mps 672 mmHg 9%
    08:00 +31°C° 0 mm 0 mps 672 mmHg 8%
    09:00 +35°C° 0 mm 1 mps 673 mmHg 7%
    10:00 +37°C° 0 mm 1 mps 673 mmHg 6%
    11:00 +39°C° 0 mm 2 mps 673 mmHg 6%
    12:00 +42°C° 0 mm 3 mps 672 mmHg 5%
    13:00 +43°C° 0 mm 4 mps 672 mmHg 5%
    14:00 +43°C° 0 mm 5 mps 672 mmHg 5%
    15:00 +43°C° 0 mm 5 mps 671 mmHg 5%
    16:00 +43°C° 0 mm 5 mps 671 mmHg 5%
    17:00 +40°C° 0 mm 5 mps 671 mmHg 6%
    18:00 +36°C° 0 mm 4 mps 670 mmHg 7%
    19:00 +34°C° 0 mm 3 mps 670 mmHg 8%
    20:00 +31°C° 0 mm 3 mps 670 mmHg 8%
    21:00 +30°C° 0 mm 2 mps 670 mmHg 9%
    22:00 +28°C° 0 mm 2 mps 670 mmHg 9%
    23:00 +28°C° 0 mm 2 mps 670 mmHg 9%
    Show more